M I D A S
Marine Information and Data Acquisition System
Tripno 1915 of the Zeeleeuw from 2010-07-07 06:55:27 to 2010-07-07 13:12:15
Back to CruiseResearch ActivitiesStationsMapUnderway DataData graphs

EquipmentUnitsComments
TimeDGPSUTC
LatitudeDGPSDM.mWGS84
LongitudeDGPSDM.mWGS84
SpeedMeteo Stationm/sRelative wind speed
DirectionMeteo StationdegRelative wind direction
TemperatureMeteo Stationdeg CelciusAir temperature
PressureMeteo StationPaAtmospheric pressure
HumidityMeteo Station%Relative humidity
Missing or incorrect values are displayed as -999
Metereological data collected by the RV Zeeleeuw from 2010-07-07 06:49:23 to 2010-07-07 13:18:48
                                                                                    Next 1000 lines
Time Latitude Longitude Speed Direction Temperature Pressure Humidity
2010-07-07 06:49:33 51°13.662 2°55.957 1.4 23 17.5 102190 35
2010-07-07 06:49:38 51°13.663 2°55.954 1.4 32 17.5 102190 34
2010-07-07 06:49:43 51°13.664 2°55.95 2.1 42 17.5 102190 34
2010-07-07 06:49:47 51°13.665 2°55.947 1.7 44 17.5 102190 36
2010-07-07 06:49:54 51°13.667 2°55.94 2.2 43 17.5 102190 36
2010-07-07 06:49:59 51°13.668 2°55.935 2.5 42 17.5 102190 35
2010-07-07 06:50:05 51°13.671 2°55.928 2.3 38 17.5 102190 35
2010-07-07 06:50:11 51°13.673 2°55.92 2.9 43 17.5 102190 35
2010-07-07 06:50:17 51°13.676 2°55.912 2.9 40 17.5 102190 35
2010-07-07 06:50:22 51°13.679 2°55.904 2.6 36 17.5 102190 35
2010-07-07 06:50:27 51°13.682 2°55.896 2.9 34 17.5 102190 35
2010-07-07 06:50:31 51°13.684 2°55.89 3.1 23 17.5 102190 34
2010-07-07 06:50:37 51°13.688 2°55.88 2.9 42 17.5 102190 34
2010-07-07 06:50:42 51°13.691 2°55.871 2.2 39 17.5 102190 35
2010-07-07 06:50:47 51°13.693 2°55.863 3.1 33 17.5 102190 35
2010-07-07 06:50:51 51°13.696 2°55.856 2.6 30 17.5 102190 34
2010-07-07 06:50:57 51°13.699 2°55.846 2.4 37 17.5 102190 34
2010-07-07 06:51:02 51°13.703 2°55.837 2.4 40 17.5 102190 36
2010-07-07 06:51:07 51°13.707 2°55.829 1.9 44 17.5 102190 36
2010-07-07 06:51:11 51°13.71 2°55.821 2.7 44 17.5 102190 35
2010-07-07 06:51:17 51°13.714 2°55.81 2.9 43 17.5 102190 35
2010-07-07 06:51:22 51°13.718 2°55.801 3.3 40 17.5 102190 35
2010-07-07 06:51:27 51°13.723 2°55.791 4.8 40 17.5 102190 35
2010-07-07 06:51:32 51°13.727 2°55.782 4.7 25 17.5 102190 36
2010-07-07 06:51:37 51°13.731 2°55.773 4.5 34 17.5 102190 36
2010-07-07 06:51:42 51°13.736 2°55.765 4.8 26 17.5 102190 36
2010-07-07 06:51:47 51°13.74 2°55.756 3.6 19 17.5 102190 36
2010-07-07 06:51:52 51°13.745 2°55.748 3.9 21 17.5 102190 35
2010-07-07 06:51:57 51°13.75 2°55.74 2.5 42 17.5 102190 35
2010-07-07 06:52:02 51°13.755 2°55.731 2.6 22 17.5 102190 34
2010-07-07 06:52:07 51°13.76 2°55.723 3.5 59 17.5 102190 34
2010-07-07 06:52:12 51°13.766 2°55.715 2.8 30 17.5 102190 34
2010-07-07 06:52:17 51°13.772 2°55.707 1.9 44 17.5 102190 34
2010-07-07 06:52:22 51°13.777 2°55.699 2.3 28 17.5 102190 35
2010-07-07 06:52:27 51°13.783 2°55.692 3.9 38 17.5 102190 35
2010-07-07 06:52:31 51°13.787 2°55.686 4 45 17.5 102190 36
2010-07-07 06:52:37 51°13.794 2°55.679 3.9 33 17.5 102190 36
2010-07-07 06:52:42 51°13.8 2°55.673 4.1 44 17.5 102190 35
2010-07-07 06:52:47 51°13.806 2°55.667 4.2 26 17.5 102190 35
2010-07-07 06:52:51 51°13.811 2°55.663 3.7 29 17.5 102190 34
2010-07-07 06:52:57 51°13.819 2°55.658 2.7 23 17.5 102190 34
2010-07-07 06:53:02 51°13.825 2°55.653 3.2 24 17.5 102190 34
2010-07-07 06:53:07 51°13.832 2°55.649 2.5 9 17.5 102190 34
2010-07-07 06:53:12 51°13.838 2°55.645 2.3 14 17.5 102190 34
2010-07-07 06:53:17 51°13.845 2°55.642 1.6 20 17.5 102190 34
2010-07-07 06:53:22 51°13.852 2°55.639 0.8 13 17.5 102190 34
2010-07-07 06:53:27 51°13.858 2°55.637 0.6 33 17.5 102190 34
2010-07-07 06:53:31 51°13.864 2°55.635 0.4 23 17.5 102190 33
2010-07-07 06:53:37 51°13.872 2°55.633 3.6 42 17.5 102190 33
2010-07-07 06:53:42 51°13.878 2°55.632 3 38 17.5 102190 35
2010-07-07 06:53:47 51°13.885 2°55.632 2.9 26 17.5 102190 35
2010-07-07 06:53:52 51°13.892 2°55.632 2.4 22 17.5 102190 35
2010-07-07 06:53:57 51°13.899 2°55.633 1 18 17.5 102190 35
2010-07-07 06:54:02 51°13.905 2°55.634 0.9 10 17.5 102190 34
2010-07-07 06:54:07 51°13.912 2°55.636 2.1 43 17.5 102190 34
2010-07-07 06:54:12 51°13.917 2°55.638 1.7 37 17.5 102190 34
2010-07-07 06:54:17 51°13.923 2°55.641 3.1 19 17.5 102190 34
2010-07-07 06:54:22 51°13.927 2°55.643 2.4 15 17.5 102190 35
2010-07-07 06:54:27 51°13.931 2°55.646 2.5 359 17.5 102190 35
2010-07-07 06:54:31 51°13.934 2°55.648 2 355 17.5 102190 34
2010-07-07 06:54:36 51°13.937 2°55.65 1.2 2 17.5 102190 34
2010-07-07 06:54:41 51°13.939 2°55.652 2.4 4 17.5 102190 36
2010-07-07 06:54:47 51°13.94 2°55.653 3.1 353 17.5 102190 36
2010-07-07 06:54:51 51°13.941 2°55.653 3.1 349 17.5 102190 34
2010-07-07 06:54:57 51°13.941 2°55.653 3.1 343 17.5 102190 34
2010-07-07 06:55:02 51°13.94 2°55.651 3.3 344 17.5 102190 36
2010-07-07 06:55:07 51°13.939 2°55.647 3.9 329 17.5 102190 36
2010-07-07 06:55:11 51°13.938 2°55.644 3.8 333 17.5 102190 35
2010-07-07 06:55:16 51°13.937 2°55.638 3.4 303 17.5 102190 35
2010-07-07 06:55:21 51°13.937 2°55.632 3.7 325 17.5 102190 35
2010-07-07 06:55:26 51°13.937 2°55.624 3.9 307 17.5 102190 35
2010-07-07 06:55:31 51°13.938 2°55.617 3.7 317 17.5 102190 34
2010-07-07 06:55:35 51°13.939 2°55.61 4.6 318 17.5 102190 34
2010-07-07 06:55:41 51°13.942 2°55.6 4.2 317 17.5 102190 35
2010-07-07 06:55:46 51°13.946 2°55.592 3.2 34 17.5 102190 35
2010-07-07 06:55:50 51°13.949 2°55.586 3.6 320 17.5 102190 35
2010-07-07 06:55:55 51°13.955 2°55.578 4.5 302 17.5 102190 35
2010-07-07 06:55:59 51°13.96 2°55.572 5.8 20 17.5 102180 36
2010-07-07 06:56:05 51°13.968 2°55.564 5.4 233 17.5 102180 36
2010-07-07 06:56:10 51°13.976 2°55.557 5.9 21 17.5 102190 33
2010-07-07 06:56:15 51°13.983 2°55.55 5 316 17.5 102190 33
2010-07-07 06:56:19 51°13.99 2°55.544 4.8 19 17.5 102190 36
2010-07-07 06:56:24 51°13.999 2°55.536 4.9 306 17.5 102190 36
2010-07-07 06:56:29 51°14.008 2°55.527 5.8 24 17.5 102190 35
2010-07-07 06:56:29 51°14.008 2°55.527 5.8 24 17.5 102190 35
2010-07-07 06:56:39 51°14.027 2°55.509 4.5 24 17.5 102190 35
2010-07-07 06:56:43 51°14.035 2°55.501 4.7 307 17.5 102190 35
2010-07-07 06:56:46 51°14.041 2°55.496 4.7 323 17.5 102190 35
2010-07-07 06:56:53 51°14.055 2°55.483 5.4 35 17.5 102190 35
2010-07-07 06:56:58 51°14.066 2°55.474 3.8 28 17.5 102200 36
2010-07-07 06:57:03 51°14.076 2°55.464 3.4 316 17.5 102200 36
2010-07-07 06:57:03 51°14.076 2°55.464 3.4 316 17.5 102200 36
2010-07-07 06:57:15 51°14.103 2°55.442 2.1 28 17.5 102180 35
2010-07-07 06:57:20 51°14.114 2°55.433 2.8 278 17.5 102180 35
2010-07-07 06:57:25 51°14.125 2°55.424 3.6 324 17.5 102190 35
2010-07-07 06:57:30 51°14.136 2°55.415 4.3 278 17.5 102190 35
2010-07-07 06:57:35 51°14.148 2°55.405 7.5 33 17.5 102190 36
2010-07-07 06:57:40 51°14.16 2°55.395 7.1 280 17.5 102190 36
2010-07-07 06:57:56 51°14.2 2°55.363 4.8 21 17.5 102190 35
2010-07-07 06:58:27 51°14.283 2°55.291 6.8 25 17.5 102190 36
2010-07-07 06:58:37 51°14.31 2°55.267 7.1 21 17.5 102180 35
2010-07-07 06:58:39 51°14.316 2°55.262 7.1 21 17.5 102180 35
2010-07-07 06:58:47 51°14.338 2°55.242 5.9 22 17.5 102180 35
2010-07-07 06:58:51 51°14.349 2°55.233 7.3 308 17.5 102180 35
2010-07-07 06:58:57 51°14.366 2°55.217 6.7 27 17.5 102170 36
2010-07-07 06:59:02 51°14.38 2°55.204 8.2 304 17.5 102170 36
2010-07-07 06:59:07 51°14.394 2°55.191 7 22 17.5 102180 36
2010-07-07 06:59:12 51°14.409 2°55.177 6.5 307 17.5 102180 36
2010-07-07 06:59:17 51°14.424 2°55.164 7 22 17.5 102180 36
2010-07-07 06:59:22 51°14.439 2°55.15 6.4 305 17.5 102180 36
2010-07-07 06:59:27 51°14.455 2°55.136 6.7 22 17.5 102170 37
2010-07-07 06:59:32 51°14.47 2°55.122 6.8 308 17.5 102170 37
2010-07-07 06:59:37 51°14.486 2°55.109 7.6 30 17.5 102170 37
2010-07-07 06:59:42 51°14.503 2°55.095 7.6 307 17.5 102170 37
2010-07-07 06:59:47 51°14.519 2°55.082 8 28 17.4 102180 36
2010-07-07 06:59:52 51°14.536 2°55.07 6.2 305 17.4 102180 36
2010-07-07 06:59:57 51°14.553 2°55.059 8 26 17.5 102180 37
2010-07-07 07:00:02 51°14.571 2°55.048 7.9 301 17.5 102180 37
2010-07-07 07:00:07 51°14.589 2°55.037 7.4 27 17.4 102170 37
2010-07-07 07:00:12 51°14.607 2°55.031 6.6 307 17.4 102170 37
2010-07-07 07:00:17 51°14.626 2°55.029 5.9 30 17.4 102180 38
2010-07-07 07:00:22 51°14.644 2°55.034 3.9 303 17.4 102180 38
2010-07-07 07:00:27 51°14.662 2°55.043 3.2 28 17.4 102160 38
2010-07-07 07:00:31 51°14.676 2°55.052 2.6 308 17.4 102160 38
2010-07-07 07:00:37 51°14.697 2°55.069 1.6 27 17.4 102180 37
2010-07-07 07:00:42 51°14.712 2°55.087 1.3 300 17.4 102180 37
2010-07-07 07:00:47 51°14.728 2°55.107 0.9 29 17.4 102190 38
2010-07-07 07:00:51 51°14.74 2°55.124 0.9 309 17.4 102190 38
2010-07-07 07:00:57 51°14.759 2°55.147 1.2 316 17.4 102190 37
2010-07-07 07:01:03 51°14.779 2°55.17 1.5 300 17.4 102190 37
2010-07-07 07:01:07 51°14.791 2°55.186 0.8 315 17.4 102200 37
2010-07-07 07:01:11 51°14.805 2°55.201 1.8 302 17.4 102200 37
2010-07-07 07:01:17 51°14.824 2°55.224 0.9 27 17.4 102190 36
2010-07-07 07:01:22 51°14.841 2°55.242 2.2 308 17.4 102190 36
2010-07-07 07:01:27 51°14.858 2°55.261 1.1 23 17.4 102190 36
2010-07-07 07:01:31 51°14.872 2°55.274 1.1 307 17.4 102190 36
2010-07-07 07:01:37 51°14.892 2°55.296 1.7 325 17.4 102190 37
2010-07-07 07:01:42 51°14.91 2°55.312 2.7 304 17.4 102190 37
2010-07-07 07:01:47 51°14.927 2°55.33 2.3 318 17.4 102190 37
2010-07-07 07:01:51 51°14.941 2°55.342 3.5 302 17.4 102190 37
2010-07-07 07:01:57 51°14.961 2°55.362 3.1 20 17.4 102190 38
2010-07-07 07:02:02 51°14.979 2°55.378 3.6 307 17.4 102190 38
2010-07-07 07:02:07 51°14.997 2°55.395 2.9 23 17.4 102190 39
2010-07-07 07:02:11 51°15.01 2°55.408 3.5 302 17.4 102190 39
2010-07-07 07:02:17 51°15.031 2°55.427 3.6 26 17.5 102180 38
2010-07-07 07:02:22 51°15.049 2°55.444 3.8 300 17.5 102180 38
2010-07-07 07:02:27 51°15.066 2°55.46 3.6 24 17.5 102190 38
2010-07-07 07:02:31 51°15.08 2°55.473 2.7 303 17.5 102190 38
2010-07-07 07:02:37 51°15.101 2°55.493 3.4 22 17.4 102190 38
2010-07-07 07:02:42 51°15.119 2°55.509 3.4 309 17.4 102190 38
2010-07-07 07:02:47 51°15.136 2°55.525 3.4 30 17.4 102190 37
2010-07-07 07:02:52 51°15.154 2°55.542 3.2 309 17.4 102190 37
2010-07-07 07:02:57 51°15.171 2°55.558 2.5 27 17.4 102180 38
2010-07-07 07:03:02 51°15.189 2°55.574 2.2 303 17.4 102180 38
2010-07-07 07:03:07 51°15.206 2°55.59 1.7 28 17.4 102190 37
2010-07-07 07:03:12 51°15.224 2°55.607 2 300 17.4 102190 37
2010-07-07 07:03:17 51°15.241 2°55.623 1.9 27 17.4 102190 38
2010-07-07 07:03:22 51°15.259 2°55.639 1.9 302 17.4 102190 38
2010-07-07 07:03:27 51°15.276 2°55.656 1.9 20 17.4 102190 38
2010-07-07 07:03:32 51°15.293 2°55.672 1.4 302 17.4 102190 38
2010-07-07 07:03:37 51°15.309 2°55.688 0.9 28 17.4 102190 38
2010-07-07 07:03:42 51°15.325 2°55.702 0.7 303 17.4 102190 38
2010-07-07 07:03:47 51°15.339 2°55.717 0.3 253 17.4 102190 36
2010-07-07 07:03:52 51°15.353 2°55.731 0.4 308 17.4 102190 36
2010-07-07 07:03:57 51°15.365 2°55.744 0.1 260 17.4 102190 37
2010-07-07 07:04:02 51°15.376 2°55.758 0.1 56 17.4 102190 37
2010-07-07 07:04:07 51°15.386 2°55.77 -999 26 17.4 102190 36
2010-07-07 07:04:11 51°15.394 2°55.781 -999 55 17.4 102190 36
2010-07-07 07:04:17 51°15.404 2°55.796 0.1 19 17.4 102200 38
2010-07-07 07:04:22 51°15.412 2°55.808 0.1 55 17.4 102200 38
2010-07-07 07:04:27 51°15.42 2°55.819 0.1 31 17.4 102190 37
2010-07-07 07:04:32 51°15.427 2°55.83 2.1 55 17.4 102190 37
2010-07-07 07:04:37 51°15.435 2°55.84 2.2 25 17.4 102190 37
2010-07-07 07:04:42 51°15.442 2°55.849 2.5 58 17.4 102190 37
2010-07-07 07:04:47 51°15.449 2°55.857 2.8 27 17.4 102190 38
2010-07-07 07:04:51 51°15.455 2°55.863 3.2 59 17.4 102190 38
2010-07-07 07:04:57 51°15.463 2°55.871 3.1 269 17.4 102190 37
2010-07-07 07:05:02 51°15.47 2°55.878 2.8 63 17.4 102190 37
2010-07-07 07:05:07 51°15.477 2°55.884 2.5 267 17.4 102190 37
2010-07-07 07:05:12 51°15.484 2°55.889 2.6 303 17.4 102190 37
2010-07-07 07:05:17 51°15.491 2°55.894 1.8 263 17.4 102190 37
2010-07-07 07:05:22 51°15.497 2°55.899 1.7 308 17.4 102190 37
2010-07-07 07:05:27 51°15.504 2°55.903 1.3 263 17.4 102190 38
2010-07-07 07:05:32 51°15.51 2°55.907 3.1 305 17.4 102190 38
2010-07-07 07:05:37 51°15.516 2°55.91 2.3 261 17.4 102190 37
2010-07-07 07:05:42 51°15.522 2°55.913 4.2 303 17.4 102190 37
2010-07-07 07:05:47 51°15.528 2°55.915 4.7 259 17.4 102190 38
2010-07-07 07:05:52 51°15.534 2°55.917 4.2 309 17.4 102190 38
2010-07-07 07:05:57 51°15.54 2°55.919 4.4 258 17.4 102190 37
2010-07-07 07:06:02 51°15.545 2°55.921 2.9 307 17.4 102190 37
2010-07-07 07:06:07 51°15.551 2°55.924 3.6 261 17.4 102190 38
2010-07-07 07:06:12 51°15.557 2°55.926 3.8 308 17.4 102190 38
2010-07-07 07:06:17 51°15.563 2°55.929 3.7 262 17.4 102190 38
2010-07-07 07:06:22 51°15.569 2°55.931 3.9 301 17.4 102190 38
2010-07-07 07:06:27 51°15.574 2°55.933 3.8 261 17.4 102190 39
2010-07-07 07:06:32 51°15.58 2°55.934 3.6 307 17.4 102190 39
2010-07-07 07:06:37 51°15.586 2°55.936 4.1 262 17.4 102190 38
2010-07-07 07:06:42 51°15.592 2°55.937 3.7 307 17.4 102190 38
2010-07-07 07:06:47 51°15.597 2°55.938 3.9 260 17.4 102190 36
2010-07-07 07:06:52 51°15.603 2°55.938 4 309 17.4 102190 36
2010-07-07 07:06:57 51°15.609 2°55.939 3.6 259 17.4 102190 38
2010-07-07 07:07:02 51°15.614 2°55.94 3.7 309 17.4 102190 38
2010-07-07 07:07:07 51°15.62 2°55.941 3.1 265 17.4 102190 38
2010-07-07 07:07:11 51°15.624 2°55.942 3.4 307 17.4 102190 38
2010-07-07 07:07:17 51°15.63 2°55.944 2.5 265 17.4 102190 37
2010-07-07 07:07:22 51°15.635 2°55.947 1.7 308 17.4 102190 37
2010-07-07 07:07:27 51°15.64 2°55.949 2.4 267 17.4 102190 38
2010-07-07 07:07:32 51°15.645 2°55.952 1.5 311 17.4 102190 38
2010-07-07 07:07:37 51°15.65 2°55.955 1.9 270 17.4 102190 38
2010-07-07 07:07:42 51°15.655 2°55.959 2.1 303 17.4 102190 38
2010-07-07 07:07:47 51°15.66 2°55.964 2 31 17.4 102190 38
2010-07-07 07:07:51 51°15.663 2°55.967 2.5 59 17.4 102190 38
2010-07-07 07:07:57 51°15.669 2°55.973 2.1 24 17.5 102190 39
2010-07-07 07:08:02 51°15.673 2°55.978 3.1 55 17.5 102190 39
2010-07-07 07:08:07 51°15.677 2°55.984 1.9 21 17.4 102190 39
2010-07-07 07:08:11 51°15.68 2°55.988 3 58 17.4 102190 39
2010-07-07 07:08:17 51°15.684 2°55.996 2.6 28 17.4 102190 38
2010-07-07 07:08:22 51°15.688 2°56.002 2.4 51 17.4 102190 38
2010-07-07 07:08:27 51°15.691 2°56.008 1.9 21 17.4 102190 39
2010-07-07 07:08:32 51°15.694 2°56.015 1.8 55 17.4 102190 39
2010-07-07 07:08:37 51°15.697 2°56.022 0.9 30 17.4 102190 37
2010-07-07 07:08:42 51°15.699 2°56.028 0.2 55 17.4 102190 37
2010-07-07 07:08:47 51°15.702 2°56.036 0.1 25 17.4 102200 37
2010-07-07 07:08:51 51°15.705 2°56.041 0.1 53 17.4 102200 37
2010-07-07 07:08:57 51°15.708 2°56.049 0.2 23 17.4 102190 38
2010-07-07 07:09:02 51°15.711 2°56.056 0.5 53 17.4 102190 38
2010-07-07 07:09:07 51°15.713 2°56.063 0.2 24 17.4 102200 38
2010-07-07 07:09:12 51°15.716 2°56.07 2.5 59 17.4 102200 38
2010-07-07 07:09:17 51°15.719 2°56.076 2.5 29 17.4 102190 38
2010-07-07 07:09:22 51°15.722 2°56.083 3.9 52 17.4 102190 38
2010-07-07 07:09:27 51°15.726 2°56.089 3.1 22 17.5 102200 36
2010-07-07 07:09:32 51°15.729 2°56.095 2.5 55 17.5 102200 36
2010-07-07 07:09:37 51°15.732 2°56.102 3.1 23 17.5 102190 38
2010-07-07 07:09:42 51°15.735 2°56.108 2.9 51 17.5 102190 38
2010-07-07 07:09:47 51°15.738 2°56.114 2.4 29 17.5 102190 37
2010-07-07 07:09:52 51°15.741 2°56.121 2.1 59 17.5 102190 37
2010-07-07 07:09:57 51°15.744 2°56.127 2 24 17.4 102200 37
2010-07-07 07:10:02 51°15.747 2°56.134 1.8 54 17.4 102200 37
2010-07-07 07:10:07 51°15.75 2°56.14 2.5 28 17.4 102190 36
2010-07-07 07:10:12 51°15.753 2°56.147 1.8 54 17.4 102190 36
2010-07-07 07:10:17 51°15.756 2°56.153 0.7 22 17.4 102190 36
2010-07-07 07:10:22 51°15.759 2°56.16 0.3 53 17.4 102190 36
2010-07-07 07:10:27 51°15.762 2°56.166 0.1 24 17.4 102200 37
2010-07-07 07:10:32 51°15.764 2°56.172 1.1 59 17.4 102200 37
2010-07-07 07:10:37 51°15.767 2°56.178 2.1 30 17.3 102190 37
2010-07-07 07:10:42 51°15.77 2°56.184 2.4 78 17.3 102190 37
2010-07-07 07:10:47 51°15.773 2°56.19 3.3 24 17.4 102190 38
2010-07-07 07:10:52 51°15.776 2°56.195 3 54 17.4 102190 38
2010-07-07 07:10:57 51°15.779 2°56.201 2.5 24 17.4 102190 37
2010-07-07 07:11:02 51°15.782 2°56.206 2.1 53 17.4 102190 37
2010-07-07 07:11:07 51°15.785 2°56.212 2.6 24 17.4 102200 38
2010-07-07 07:11:12 51°15.788 2°56.217 3.2 54 17.4 102200 38
2010-07-07 07:11:17 51°15.791 2°56.223 2.9 30 17.3 102190 38
2010-07-07 07:11:22 51°15.794 2°56.228 2.2 54 17.3 102190 38
2010-07-07 07:11:27 51°15.797 2°56.234 1.9 22 17.4 102190 37
2010-07-07 07:11:32 51°15.799 2°56.239 1.8 50 17.4 102190 37
2010-07-07 07:11:37 51°15.802 2°56.245 0.4 27 17.3 102190 37
2010-07-07 07:11:42 51°15.805 2°56.251 0.2 73 17.3 102190 37
2010-07-07 07:11:47 51°15.807 2°56.257 0.1 23 17.3 102190 37
2010-07-07 07:11:52 51°15.81 2°56.263 0.9 54 17.3 102190 37
2010-07-07 07:11:57 51°15.812 2°56.269 0.9 30 17.3 102200 38
2010-07-07 07:12:02 51°15.815 2°56.275 0.5 56 17.3 102200 38
2010-07-07 07:12:07 51°15.817 2°56.28 1 21 17.4 102200 37
2010-07-07 07:12:12 51°15.82 2°56.286 0.3 61 17.4 102200 37
2010-07-07 07:12:17 51°15.822 2°56.292 1.6 29 17.4 102200 38
2010-07-07 07:12:22 51°15.825 2°56.297 1.6 58 17.4 102200 38
2010-07-07 07:12:27 51°15.828 2°56.303 0.8 22 17.4 102200 38
2010-07-07 07:12:32 51°15.83 2°56.308 0.2 58 17.4 102200 38
2010-07-07 07:12:37 51°15.833 2°56.314 0.2 26 17.5 102200 39
2010-07-07 07:12:42 51°15.836 2°56.319 0.6 59 17.5 102200 39
2010-07-07 07:12:47 51°15.839 2°56.324 1.6 20 17.5 102200 38
2010-07-07 07:12:51 51°15.841 2°56.329 2.5 54 17.5 102200 38
2010-07-07 07:12:57 51°15.844 2°56.335 2 24 17.6 102200 39
2010-07-07 07:13:02 51°15.847 2°56.341 3.5 54 17.6 102200 39
2010-07-07 07:13:07 51°15.85 2°56.346 2.9 23 17.6 102200 39
2010-07-07 07:13:12 51°15.853 2°56.352 3.6 54 17.6 102200 39
2010-07-07 07:13:17 51°15.856 2°56.358 3 22 17.5 102200 37
2010-07-07 07:13:23 51°15.859 2°56.364 3.1 56 17.5 102200 37
2010-07-07 07:13:27 51°15.861 2°56.369 3.4 24 17.5 102200 38
2010-07-07 07:13:31 51°15.864 2°56.373 3.3 59 17.5 102200 38
2010-07-07 07:13:37 51°15.867 2°56.38 3.5 29 17.5 102190 39
2010-07-07 07:13:42 51°15.87 2°56.385 3.2 75 17.5 102190 39
2010-07-07 07:13:47 51°15.873 2°56.391 3.4 22 17.5 102190 39
2010-07-07 07:13:52 51°15.876 2°56.397 3.4 58 17.5 102190 39
2010-07-07 07:13:57 51°15.878 2°56.403 3.5 22 17.5 102190 40
2010-07-07 07:14:02 51°15.881 2°56.409 3.2 54 17.5 102190 40
2010-07-07 07:14:07 51°15.884 2°56.415 3.2 26 17.5 102190 39
2010-07-07 07:14:12 51°15.887 2°56.421 2.8 51 17.5 102190 39
2010-07-07 07:14:17 51°15.889 2°56.427 2.7 23 17.4 102200 39
2010-07-07 07:14:22 51°15.892 2°56.433 0.5 58 17.4 102200 39
2010-07-07 07:14:27 51°15.894 2°56.439 0.2 22 17.4 102190 38
2010-07-07 07:14:31 51°15.896 2°56.444 0.6 54 17.4 102190 38
2010-07-07 07:14:37 51°15.899 2°56.452 0.3 24 17.4 102200 39
2010-07-07 07:14:42 51°15.902 2°56.459 0.1 55 17.4 102200 39
2010-07-07 07:14:47 51°15.904 2°56.465 0.5 22 17.5 102190 38
2010-07-07 07:14:52 51°15.907 2°56.471 1.5 60 17.5 102190 38
2010-07-07 07:14:57 51°15.909 2°56.478 1.3 29 17.5 102200 39
2010-07-07 07:15:02 51°15.911 2°56.484 1.5 58 17.5 102200 39
2010-07-07 07:15:07 51°15.914 2°56.491 0.5 22 17.6 102200 38
2010-07-07 07:15:12 51°15.916 2°56.498 0.7 53 17.6 102200 38
2010-07-07 07:15:17 51°15.918 2°56.504 0.7 29 17.6 102200 37
2010-07-07 07:15:22 51°15.92 2°56.511 1.9 58 17.6 102200 37
2010-07-07 07:15:27 51°15.922 2°56.518 2 25 17.6 102200 38
2010-07-07 07:15:32 51°15.924 2°56.525 2.3 58 17.6 102200 38
2010-07-07 07:15:37 51°15.926 2°56.532 2.3 29 17.6 102200 38
2010-07-07 07:15:42 51°15.928 2°56.539 2.4 83 17.6 102200 38
2010-07-07 07:15:47 51°15.93 2°56.546 2.7 43 17.7 102190 38
2010-07-07 07:15:51 51°15.931 2°56.551 2.8 44 17.7 102190 38
2010-07-07 07:15:57 51°15.933 2°56.559 2.3 44 17.7 102200 39
2010-07-07 07:16:02 51°15.935 2°56.566 2.4 53 17.7 102200 39
2010-07-07 07:16:07 51°15.937 2°56.573 3.1 25 17.6 102200 37
2010-07-07 07:16:12 51°15.939 2°56.58 2.5 45 17.6 102200 37
2010-07-07 07:16:17 51°15.94 2°56.586 2.7 44 17.6 102200 38
2010-07-07 07:16:23 51°15.942 2°56.595 3.3 57 17.6 102200 38
2010-07-07 07:16:27 51°15.944 2°56.6 3.3 22 17.6 102200 37
2010-07-07 07:16:31 51°15.945 2°56.606 2.9 60 17.6 102200 37
2010-07-07 07:16:37 51°15.948 2°56.614 2.9 23 17.6 102200 37
2010-07-07 07:16:42 51°15.949 2°56.621 2.5 57 17.6 102200 37
2010-07-07 07:16:47 51°15.951 2°56.628 2.5 43 17.5 102200 38
2010-07-07 07:16:52 51°15.953 2°56.635 2 57 17.5 102200 38
2010-07-07 07:16:57 51°15.955 2°56.641 2.2 26 17.5 102200 37
2010-07-07 07:17:02 51°15.957 2°56.648 2.2 54 17.5 102200 37
2010-07-07 07:17:07 51°15.959 2°56.655 1.4 24 17.5 102200 37
2010-07-07 07:17:12 51°15.96 2°56.661 1.2 52 17.5 102200 37
2010-07-07 07:17:17 51°15.962 2°56.668 0.2 27 17.5 102190 37
2010-07-07 07:17:22 51°15.964 2°56.674 0.1 55 17.5 102190 37
2010-07-07 07:17:27 51°15.966 2°56.681 0.1 25 17.5 102200 36
2010-07-07 07:17:32 51°15.968 2°56.687 -999 55 17.5 102200 36
2010-07-07 07:17:37 51°15.969 2°56.694 -999 25 17.4 102190 38
2010-07-07 07:17:42 51°15.971 2°56.7 0.1 73 17.4 102190 38
2010-07-07 07:17:47 51°15.973 2°56.707 2.4 27 17.5 102200 38
2010-07-07 07:17:51 51°15.974 2°56.712 1.4 53 17.5 102200 38
2010-07-07 07:17:57 51°15.977 2°56.72 1.8 29 17.5 102200 38
2010-07-07 07:18:02 51°15.978 2°56.726 1.5 52 17.5 102200 38
2010-07-07 07:18:07 51°15.98 2°56.733 1.4 29 17.5 102190 38
2010-07-07 07:18:12 51°15.982 2°56.739 3.1 53 17.5 102190 38
2010-07-07 07:18:17 51°15.984 2°56.745 3.4 30 17.5 102200 38
2010-07-07 07:18:23 51°15.986 2°56.753 3.1 51 17.5 102200 38
2010-07-07 07:18:27 51°15.987 2°56.758 2.3 23 17.5 102200 38
2010-07-07 07:18:31 51°15.989 2°56.763 2 51 17.5 102200 38
2010-07-07 07:18:37 51°15.991 2°56.77 1.9 21 17.6 102200 40
2010-07-07 07:18:42 51°15.993 2°56.776 3.1 59 17.6 102200 40
2010-07-07 07:18:47 51°15.995 2°56.782 2.4 28 17.6 102200 38
2010-07-07 07:18:52 51°15.997 2°56.789 2.8 54 17.6 102200 38
2010-07-07 07:18:57 51°15.998 2°56.795 2 27 17.5 102200 38
2010-07-07 07:19:02 51°16 2°56.801 2.3 60 17.5 102200 38
2010-07-07 07:19:07 51°16.002 2°56.807 1.9 20 17.5 102190 38
2010-07-07 07:19:12 51°16.004 2°56.813 0.7 58 17.5 102190 38
2010-07-07 07:19:17 51°16.006 2°56.819 0.2 22 17.5 102200 38
2010-07-07 07:19:22 51°16.008 2°56.826 0.7 55 17.5 102200 38
2010-07-07 07:19:27 51°16.01 2°56.832 0.1 28 17.5 102200 37
2010-07-07 07:19:32 51°16.012 2°56.838 0.5 58 17.5 102200 37
2010-07-07 07:19:37 51°16.013 2°56.844 0.2 22 17.5 102190 37
2010-07-07 07:19:42 51°16.015 2°56.85 0.2 78 17.5 102190 37
2010-07-07 07:19:47 51°16.017 2°56.856 0.1 24 17.5 102200 37
2010-07-07 07:19:51 51°16.019 2°56.861 -999 55 17.5 102200 37
2010-07-07 07:19:57 51°16.021 2°56.868 2.2 30 17.6 102190 38
2010-07-07 07:20:02 51°16.023 2°56.874 3.7 52 17.6 102190 38
2010-07-07 07:20:07 51°16.024 2°56.88 3.5 23 17.6 102190 37
2010-07-07 07:20:12 51°16.026 2°56.886 3.9 54 17.6 102190 37
2010-07-07 07:20:17 51°16.028 2°56.892 2.8 29 17.7 102190 38
2010-07-07 07:20:23 51°16.03 2°56.899 3.3 58 17.7 102190 38
2010-07-07 07:20:27 51°16.032 2°56.903 3.3 22 17.7 102190 37
2010-07-07 07:20:31 51°16.033 2°56.908 3 51 17.7 102190 37
2010-07-07 07:20:37 51°16.035 2°56.915 3.5 27 17.7 102190 38
2010-07-07 07:20:42 51°16.037 2°56.921 2.2 52 17.7 102190 38
2010-07-07 07:20:47 51°16.039 2°56.927 2.6 27 17.7 102200 37
2010-07-07 07:20:52 51°16.041 2°56.933 2.9 58 17.7 102200 37
2010-07-07 07:20:57 51°16.042 2°56.938 2.9 27 17.6 102200 37
2010-07-07 07:21:02 51°16.044 2°56.944 2.9 53 17.6 102200 37
2010-07-07 07:21:07 51°16.046 2°56.95 2.7 28 17.6 102200 37
2010-07-07 07:21:12 51°16.047 2°56.956 2.8 59 17.6 102200 37
2010-07-07 07:21:17 51°16.049 2°56.962 2.5 25 17.6 102200 37
2010-07-07 07:21:22 51°16.051 2°56.967 3.3 60 17.6 102200 37
2010-07-07 07:21:27 51°16.053 2°56.973 3.3 23 17.5 102190 37
2010-07-07 07:21:32 51°16.054 2°56.979 3.1 52 17.5 102190 37
2010-07-07 07:21:37 51°16.056 2°56.985 2.7 20 17.5 102200 39
2010-07-07 07:21:42 51°16.057 2°56.991 3.3 75 17.5 102200 39
2010-07-07 07:21:47 51°16.059 2°56.997 3.5 24 17.5 102200 39
2010-07-07 07:21:51 51°16.06 2°57.001 3.2 53 17.5 102200 39
2010-07-07 07:21:57 51°16.062 2°57.008 3 27 17.5 102200 37
2010-07-07 07:22:02 51°16.064 2°57.014 2.7 59 17.5 102200 37
2010-07-07 07:22:07 51°16.065 2°57.02 2.5 21 17.5 102190 38
2010-07-07 07:22:12 51°16.067 2°57.025 3 53 17.5 102190 38
2010-07-07 07:22:17 51°16.068 2°57.031 3 29 17.4 102200 38
2010-07-07 07:22:23 51°16.07 2°57.038 3.2 44 17.4 102200 38
2010-07-07 07:22:27 51°16.071 2°57.043 2.8 45 17.4 102190 37
2010-07-07 07:22:31 51°16.072 2°57.048 2.4 52 17.4 102190 37
2010-07-07 07:22:37 51°16.074 2°57.055 2.5 44 17.4 102190 38
2010-07-07 07:22:42 51°16.076 2°57.061 2.4 44 17.4 102190 38
2010-07-07 07:22:47 51°16.077 2°57.067 2.3 30 17.4 102190 36
2010-07-07 07:22:52 51°16.079 2°57.072 2.4 60 17.4 102190 36
2010-07-07 07:22:57 51°16.08 2°57.078 2.6 22 17.4 102190 38
2010-07-07 07:23:02 51°16.082 2°57.084 2.3 60 17.4 102190 38
2010-07-07 07:23:07 51°16.083 2°57.09 2.5 22 17.4 102190 38
2010-07-07 07:23:12 51°16.085 2°57.096 2.5 60 17.4 102190 38
2010-07-07 07:23:17 51°16.086 2°57.103 2.5 23 17.4 102190 38
2010-07-07 07:23:22 51°16.088 2°57.109 2.4 60 17.4 102190 38
2010-07-07 07:23:27 51°16.089 2°57.115 2.3 23 17.3 102190 37
2010-07-07 07:23:32 51°16.091 2°57.121 1.5 45 17.3 102190 37
2010-07-07 07:23:37 51°16.092 2°57.127 2 44 17.3 102190 38
2010-07-07 07:23:42 51°16.094 2°57.133 2.5 76 17.3 102190 38
2010-07-07 07:23:47 51°16.095 2°57.139 2.5 22 17.3 102200 38
2010-07-07 07:23:51 51°16.096 2°57.144 2.6 54 17.3 102200 38
2010-07-07 07:23:57 51°16.098 2°57.152 2.9 30 17.3 102190 38
2010-07-07 07:24:02 51°16.1 2°57.158 2.6 56 17.3 102190 38
2010-07-07 07:24:07 51°16.101 2°57.164 2.9 22 17.3 102190 38
2010-07-07 07:24:12 51°16.103 2°57.171 3.1 58 17.3 102190 38
2010-07-07 07:24:17 51°16.104 2°57.177 3.1 25 17.3 102190 39
2010-07-07 07:24:22 51°16.106 2°57.183 3.3 54 17.3 102190 39
2010-07-07 07:24:27 51°16.108 2°57.19 3 30 17.3 102190 38
2010-07-07 07:24:31 51°16.109 2°57.195 3.4 58 17.3 102190 38
2010-07-07 07:24:37 51°16.111 2°57.203 3.4 21 17.3 102190 38
2010-07-07 07:24:42 51°16.113 2°57.209 3.3 51 17.3 102190 38
2010-07-07 07:24:47 51°16.114 2°57.216 3.2 29 17.3 102190 38
2010-07-07 07:24:52 51°16.116 2°57.222 3.1 53 17.3 102190 38
2010-07-07 07:24:57 51°16.118 2°57.229 3.2 22 17.3 102190 38
2010-07-07 07:25:02 51°16.12 2°57.235 3.3 53 17.3 102190 38
2010-07-07 07:25:07 51°16.122 2°57.241 3.3 28 17.3 102190 38
2010-07-07 07:25:12 51°16.123 2°57.247 2.3 59 17.3 102190 38
2010-07-07 07:25:17 51°16.125 2°57.253 1.1 22 17.3 102190 38
2010-07-07 07:25:22 51°16.127 2°57.259 0.2 58 17.3 102190 38
2010-07-07 07:25:27 51°16.129 2°57.265 0.2 22 17.3 102190 37
2010-07-07 07:25:32 51°16.131 2°57.271 0.1 55 17.3 102190 37
2010-07-07 07:25:37 51°16.134 2°57.277 0.1 24 17.2 102190 37
2010-07-07 07:25:42 51°16.136 2°57.283 -999 78 17.2 102190 37
2010-07-07 07:25:47 51°16.138 2°57.289 0.1 24 17.2 102190 38
2010-07-07 07:25:51 51°16.14 2°57.294 0.3 54 17.2 102190 38
2010-07-07 07:25:57 51°16.142 2°57.301 0.1 24 17.2 102190 38
2010-07-07 07:26:02 51°16.144 2°57.308 0.1 55 17.2 102190 38
2010-07-07 07:26:07 51°16.146 2°57.314 -999 24 17.3 102190 37
2010-07-07 07:26:12 51°16.148 2°57.32 -999 55 17.3 102190 37
2010-07-07 07:26:17 51°16.15 2°57.326 1.3 22 17.3 102190 38
2010-07-07 07:26:22 51°16.151 2°57.333 2.6 54 17.3 102190 38
2010-07-07 07:26:27 51°16.153 2°57.339 2.4 22 17.4 102190 38
2010-07-07 07:26:31 51°16.154 2°57.345 2.3 44 17.4 102190 38
2010-07-07 07:26:37 51°16.156 2°57.353 2.7 44 17.4 102190 39
2010-07-07 07:26:42 51°16.157 2°57.359 3.1 39 17.4 102190 39
2010-07-07 07:26:47 51°16.158 2°57.366 3.3 43 17.5 102190 39
2010-07-07 07:26:52 51°16.159 2°57.372 2.9 40 17.5 102190 39
2010-07-07 07:26:57 51°16.16 2°57.379 2.6 38 17.5 102190 38
2010-07-07 07:27:02 51°16.161 2°57.386 4.3 37 17.5 102190 38
2010-07-07 07:27:07 51°16.162 2°57.392 4 35 17.5 102190 39
2010-07-07 07:27:12 51°16.163 2°57.398 4 38 17.5 102190 39
2010-07-07 07:27:17 51°16.164 2°57.405 4.1 37 17.5 102190 38
2010-07-07 07:27:22 51°16.165 2°57.411 3.5 39 17.5 102190 38
2010-07-07 07:27:27 51°16.166 2°57.417 3.4 37 17.4 102190 39
2010-07-07 07:27:32 51°16.167 2°57.424 3.6 35 17.4 102190 39
2010-07-07 07:27:37 51°16.168 2°57.43 3.3 32 17.5 102190 39
2010-07-07 07:27:42 51°16.169 2°57.436 3.5 31 17.5 102190 39
2010-07-07 07:27:47 51°16.17 2°57.443 3.9 34 17.5 102180 40
2010-07-07 07:27:52 51°16.171 2°57.449 3.9 37 17.5 102180 40
2010-07-07 07:27:57 51°16.172 2°57.455 3.8 36 17.4 102190 38
2010-07-07 07:28:02 51°16.173 2°57.461 3.8 35 17.4 102190 38
2010-07-07 07:28:07 51°16.174 2°57.467 3.6 33 17.4 102190 39
2010-07-07 07:28:12 51°16.175 2°57.474 4 33 17.4 102190 39
2010-07-07 07:28:17 51°16.175 2°57.48 4.5 36 17.4 102190 40
2010-07-07 07:28:22 51°16.176 2°57.487 4 34 17.4 102190 40
2010-07-07 07:28:27 51°16.177 2°57.493 4.4 33 17.4 102190 38
2010-07-07 07:28:32 51°16.178 2°57.5 4.2 35 17.4 102190 38
2010-07-07 07:28:37 51°16.178 2°57.506 4.1 35 17.4 102190 38
2010-07-07 07:28:42 51°16.179 2°57.513 4.5 35 17.4 102190 38
2010-07-07 07:28:47 51°16.18 2°57.52 3.8 35 17.4 102190 39
2010-07-07 07:28:52 51°16.18 2°57.527 4.1 33 17.4 102190 39
2010-07-07 07:28:57 51°16.181 2°57.534 3.7 34 17.4 102190 38
2010-07-07 07:29:02 51°16.181 2°57.541 3.5 30 17.4 102190 38
2010-07-07 07:29:07 51°16.182 2°57.549 3.9 34 17.3 102190 38
2010-07-07 07:29:12 51°16.182 2°57.557 4 29 17.3 102190 38
2010-07-07 07:29:17 51°16.182 2°57.564 3.6 30 17.3 102190 37
2010-07-07 07:29:22 51°16.182 2°57.573 3.6 32 17.3 102190 37
2010-07-07 07:29:27 51°16.182 2°57.581 3.6 30 17.3 102190 38
2010-07-07 07:29:32 51°16.181 2°57.589 3.5 25 17.3 102190 38
2010-07-07 07:29:37 51°16.181 2°57.598 3.5 28 17.3 102190 38
2010-07-07 07:29:42 51°16.18 2°57.606 3.7 28 17.3 102190 38
2010-07-07 07:29:47 51°16.179 2°57.615 3.1 26 17.3 102190 39
2010-07-07 07:29:52 51°16.178 2°57.623 3.1 26 17.3 102190 39
2010-07-07 07:29:57 51°16.177 2°57.632 3.1 24 17.3 102190 38
2010-07-07 07:30:02 51°16.176 2°57.641 2.9 22 17.3 102190 38
2010-07-07 07:30:07 51°16.174 2°57.65 3.2 23 17.3 102190 39
2010-07-07 07:30:11 51°16.172 2°57.657 3.3 17 17.3 102190 39
2010-07-07 07:30:17 51°16.17 2°57.667 3.9 19 17.3 102190 38
2010-07-07 07:30:22 51°16.168 2°57.675 3.5 16 17.3 102190 38
2010-07-07 07:30:27 51°16.165 2°57.684 3.3 16 17.3 102190 38
2010-07-07 07:30:32 51°16.162 2°57.692 3.3 13 17.3 102190 38
2010-07-07 07:30:37 51°16.16 2°57.7 3.8 11 17.3 102190 38
2010-07-07 07:30:42 51°16.157 2°57.708 3 10 17.3 102190 38
2010-07-07 07:30:47 51°16.153 2°57.715 4.4 9 17.3 102190 37
2010-07-07 07:30:51 51°16.151 2°57.72 3.8 8 17.3 102190 37
2010-07-07 07:30:57 51°16.148 2°57.728 3.7 5 17.3 102190 38
2010-07-07 07:31:02 51°16.145 2°57.734 3.9 7 17.3 102190 38
2010-07-07 07:31:07 51°16.143 2°57.739 4.2 7 17.3 102190 38
2010-07-07 07:31:12 51°16.14 2°57.745 4.1 8 17.3 102190 38
2010-07-07 07:31:17 51°16.138 2°57.75 4.2 8 17.3 102190 39
2010-07-07 07:31:23 51°16.135 2°57.756 4.8 9 17.3 102190 39
2010-07-07 07:31:27 51°16.133 2°57.76 4.6 8 17.3 102180 41
2010-07-07 07:31:31 51°16.131 2°57.764 3.9 9 17.3 102180 41
2010-07-07 07:31:37 51°16.129 2°57.769 4.2 9 17.3 102180 40
2010-07-07 07:31:42 51°16.127 2°57.774 4.6 8 17.3 102180 40
2010-07-07 07:31:47 51°16.125 2°57.778 4.9 9 17.3 102180 39
2010-07-07 07:31:52 51°16.123 2°57.782 3.5 7 17.3 102180 39
2010-07-07 07:31:57 51°16.121 2°57.786 3.6 5 17.3 102190 39
2010-07-07 07:32:02 51°16.119 2°57.79 4.3 3 17.3 102190 39
2010-07-07 07:32:07 51°16.118 2°57.793 3.9 6 17.2 102190 38
2010-07-07 07:32:12 51°16.116 2°57.797 4.2 8 17.2 102190 38
2010-07-07 07:32:17 51°16.114 2°57.801 4.2 3 17.2 102190 38
2010-07-07 07:32:22 51°16.113 2°57.804 4.4 1 17.2 102190 38
2010-07-07 07:32:27 51°16.111 2°57.808 4.4 360 17.2 102190 40
2010-07-07 07:32:31 51°16.11 2°57.811 4.4 -999 17.2 102190 40
2010-07-07 07:32:37 51°16.109 2°57.815 4.1 360 17.3 102180 39
2010-07-07 07:32:42 51°16.107 2°57.819 4.3 355 17.3 102180 39
2010-07-07 07:32:47 51°16.104 2°57.822 4.4 353 17.3 102180 39
2010-07-07 07:32:52 51°16.1 2°57.825 4.9 351 17.3 102180 39
2010-07-07 07:32:57 51°16.095 2°57.828 5.9 349 17.3 102180 40
2010-07-07 07:33:02 51°16.09 2°57.83 5.7 345 17.3 102180 40
2010-07-07 07:33:07 51°16.085 2°57.831 5.3 346 17.2 102180 39
2010-07-07 07:33:12 51°16.08 2°57.831 5.8 342 17.2 102180 39
2010-07-07 07:33:17 51°16.074 2°57.83 6.4 342 17.2 102180 39
2010-07-07 07:33:22 51°16.067 2°57.828 6.7 336 17.2 102180 39
2010-07-07 07:33:27 51°16.06 2°57.823 7.3 333 17.2 102170 37
2010-07-07 07:33:32 51°16.054 2°57.816 7.2 332 17.2 102170 37
2010-07-07 07:33:37 51°16.048 2°57.808 7.8 331 17.2 102170 38
2010-07-07 07:33:42 51°16.042 2°57.799 7.3 282 17.2 102170 38
2010-07-07 07:33:47 51°16.037 2°57.787 6.8 327 17.2 102170 39
2010-07-07 07:33:52 51°16.032 2°57.775 7.1 302 17.2 102170 39
2010-07-07 07:33:57 51°16.029 2°57.761 7 327 17.2 102180 39
2010-07-07 07:34:02 51°16.026 2°57.746 7.2 326 17.2 102180 39
2010-07-07 07:34:07 51°16.025 2°57.729 9.1 325 17.1 102170 38
2010-07-07 07:34:12 51°16.025 2°57.711 8.9 302 17.1 102170 38
2010-07-07 07:34:17 51°16.026 2°57.692 8.8 320 17.2 102170 39
2010-07-07 07:34:22 51°16.029 2°57.673 7.9 302 17.2 102170 39
2010-07-07 07:34:27 51°16.033 2°57.653 9 316 17.2 102170 39
2010-07-07 07:34:32 51°16.038 2°57.633 9.7 307 17.2 102170 39
2010-07-07 07:34:37 51°16.045 2°57.613 9 320 17.2 102170 39
2010-07-07 07:34:42 51°16.051 2°57.592 9.5 308 17.2 102170 39
2010-07-07 07:34:47 51°16.058 2°57.57 8.1 319 17.2 102170 39
2010-07-07 07:34:52 51°16.066 2°57.549 9.6 304 17.2 102170 39
2010-07-07 07:34:57 51°16.074 2°57.526 8.5 319 17.2 102170 39
2010-07-07 07:35:02 51°16.083 2°57.504 8.3 307 17.2 102170 39
2010-07-07 07:35:07 51°16.091 2°57.481 9.5 317 17.2 102170 38
2010-07-07 07:35:12 51°16.101 2°57.459 9.9 307 17.2 102170 38
2010-07-07 07:35:17 51°16.11 2°57.436 9.7 318 17.2 102160 38
2010-07-07 07:35:22 51°16.119 2°57.413 8.7 309 17.2 102160 38
2010-07-07 07:35:27 51°16.128 2°57.389 9.4 319 17.2 102160 39
2010-07-07 07:35:32 51°16.136 2°57.365 8.9 308 17.2 102160 39
2010-07-07 07:35:37 51°16.145 2°57.341 9 317 17.2 102160 38
2010-07-07 07:35:42 51°16.153 2°57.317 8.9 283 17.2 102160 38
2010-07-07 07:35:47 51°16.161 2°57.292 7.9 318 17.2 102160 38
2010-07-07 07:35:52 51°16.17 2°57.268 8.7 306 17.2 102160 38
2010-07-07 07:35:57 51°16.178 2°57.244 8.7 316 17.2 102160 38
2010-07-07 07:36:02 51°16.187 2°57.219 8.3 303 17.2 102160 38
2010-07-07 07:36:07 51°16.195 2°57.195 8.1 315 17.2 102160 37
2010-07-07 07:36:12 51°16.204 2°57.17 7.6 303 17.2 102160 37
2010-07-07 07:36:17 51°16.212 2°57.146 8.5 318 17.2 102160 39
2010-07-07 07:36:22 51°16.221 2°57.121 8.6 309 17.2 102160 39
2010-07-07 07:36:27 51°16.229 2°57.096 9.2 317 17.2 102160 38
2010-07-07 07:36:32 51°16.238 2°57.072 8.8 302 17.2 102160 38
2010-07-07 07:36:37 51°16.246 2°57.047 8.8 316 17.2 102170 39
2010-07-07 07:36:42 51°16.254 2°57.022 9.3 306 17.2 102170 39
2010-07-07 07:36:47 51°16.261 2°56.997 9.1 315 17.2 102160 39
2010-07-07 07:36:52 51°16.269 2°56.972 8.3 301 17.2 102160 39
2010-07-07 07:36:57 51°16.276 2°56.946 10 319 17.2 102160 40
2010-07-07 07:37:03 51°16.284 2°56.915 10.4 308 17.2 102160 40
2010-07-07 07:37:07 51°16.289 2°56.895 9.9 317 17.2 102160 40
2010-07-07 07:37:11 51°16.295 2°56.874 9 307 17.2 102160 40
2010-07-07 07:37:17 51°16.303 2°56.844 9.8 316 17.3 102160 40
2010-07-07 07:37:23 51°16.311 2°56.812 8.9 307 17.3 102160 40
2010-07-07 07:37:27 51°16.316 2°56.792 9.7 320 17.3 102160 40
2010-07-07 07:37:31 51°16.321 2°56.771 8.6 303 17.3 102160 40
2010-07-07 07:37:37 51°16.329 2°56.74 8.2 317 17.2 102160 38
2010-07-07 07:37:42 51°16.337 2°56.714 9 281 17.2 102160 38
2010-07-07 07:37:47 51°16.343 2°56.688 9.5 317 17.3 102160 39
2010-07-07 07:37:52 51°16.35 2°56.662 8.9 301 17.3 102160 39
2010-07-07 07:37:57 51°16.357 2°56.637 8.9 317 17.3 102160 39
2010-07-07 07:38:02 51°16.365 2°56.611 9.6 310 17.3 102160 39
2010-07-07 07:38:07 51°16.371 2°56.585 8.8 318 17.3 102160 39
2010-07-07 07:38:12 51°16.378 2°56.559 9.1 307 17.3 102160 39
2010-07-07 07:38:17 51°16.385 2°56.534 7.7 25 17.3 102160 39
2010-07-07 07:38:22 51°16.392 2°56.508 9.1 304 17.3 102160 39
2010-07-07 07:38:27 51°16.399 2°56.483 8.7 316 17.3 102170 39
2010-07-07 07:38:32 51°16.406 2°56.457 8.5 304 17.3 102170 39
2010-07-07 07:38:37 51°16.413 2°56.432 9.1 316 17.3 102160 40
2010-07-07 07:38:42 51°16.42 2°56.407 8.8 301 17.3 102160 40
2010-07-07 07:38:47 51°16.428 2°56.381 8.7 28 17.3 102160 39
2010-07-07 07:38:52 51°16.435 2°56.356 9 307 17.3 102160 39
2010-07-07 07:38:57 51°16.443 2°56.331 8.4 317 17.3 102160 39
2010-07-07 07:39:02 51°16.451 2°56.306 9.6 301 17.3 102160 39
2010-07-07 07:39:07 51°16.458 2°56.281 9 318 17.3 102160 40
2010-07-07 07:39:11 51°16.465 2°56.262 10.1 302 17.3 102160 40
2010-07-07 07:39:17 51°16.475 2°56.232 8.9 26 17.3 102160 40
2010-07-07 07:39:22 51°16.484 2°56.208 10.7 306 17.3 102160 40
2010-07-07 07:39:27 51°16.493 2°56.184 10.5 23 17.3 102160 40
2010-07-07 07:39:32 51°16.501 2°56.16 9.5 309 17.3 102160 40
2010-07-07 07:39:37 51°16.51 2°56.135 8.8 26 17.3 102150 40
2010-07-07 07:39:42 51°16.518 2°56.111 8.7 282 17.3 102150 40
2010-07-07 07:39:47 51°16.526 2°56.086 9 21 17.3 102160 39
2010-07-07 07:39:51 51°16.532 2°56.066 9.1 307 17.3 102160 39
2010-07-07 07:39:57 51°16.541 2°56.036 9.4 316 17.3 102150 40
2010-07-07 07:40:02 51°16.549 2°56.011 8.8 304 17.3 102150 40
2010-07-07 07:40:07 51°16.556 2°55.986 8.7 317 17.3 102150 41
2010-07-07 07:40:11 51°16.561 2°55.966 8.4 302 17.3 102150 41
2010-07-07 07:40:17 51°16.57 2°55.936 9.2 316 17.3 102160 40
2010-07-07 07:40:22 51°16.577 2°55.91 9.8 304 17.3 102160 40
2010-07-07 07:40:27 51°16.584 2°55.885 9 27 17.3 102160 40
2010-07-07 07:40:32 51°16.592 2°55.86 9.1 306 17.3 102160 40
2010-07-07 07:40:37 51°16.599 2°55.834 9.4 317 17.3 102150 40
2010-07-07 07:40:42 51°16.606 2°55.809 10.2 301 17.3 102150 40
2010-07-07 07:40:47 51°16.613 2°55.784 9.4 318 17.3 102160 39
2010-07-07 07:40:51 51°16.619 2°55.764 8.4 308 17.3 102160 39
2010-07-07 07:40:57 51°16.628 2°55.734 9 29 17.3 102160 39
2010-07-07 07:41:02 51°16.636 2°55.709 8.7 303 17.3 102160 39
2010-07-07 07:41:07 51°16.644 2°55.684 9 29 17.3 102150 39
2010-07-07 07:41:12 51°16.653 2°55.66 9.1 302 17.3 102150 39
2010-07-07 07:41:17 51°16.661 2°55.635 9.6 23 17.3 102160 40
2010-07-07 07:41:22 51°16.67 2°55.611 9.1 305 17.3 102160 40
2010-07-07 07:41:27 51°16.678 2°55.587 9.2 23 17.3 102160 39
2010-07-07 07:41:32 51°16.687 2°55.562 9.4 305 17.3 102160 39
2010-07-07 07:41:37 51°16.696 2°55.538 9 24 17.3 102160 39
2010-07-07 07:41:42 51°16.705 2°55.514 9.6 284 17.3 102160 39
2010-07-07 07:41:47 51°16.713 2°55.49 8.6 24 17.3 102160 39
2010-07-07 07:41:52 51°16.722 2°55.465 9 305 17.3 102160 39
2010-07-07 07:41:57 51°16.731 2°55.441 9.1 23 17.3 102150 39
2010-07-07 07:42:02 51°16.74 2°55.417 9.9 306 17.3 102150 39
2010-07-07 07:42:07 51°16.749 2°55.393 9.9 24 17.3 102160 38
2010-07-07 07:42:12 51°16.758 2°55.369 10.5 307 17.3 102160 38
2010-07-07 07:42:17 51°16.767 2°55.345 9.1 317 17.3 102160 39
2010-07-07 07:42:22 51°16.775 2°55.32 9 306 17.3 102160 39
2010-07-07 07:42:27 51°16.784 2°55.296 9.8 318 17.3 102160 39
2010-07-07 07:42:32 51°16.793 2°55.272 10.2 306 17.3 102160 39
2010-07-07 07:42:37 51°16.802 2°55.248 10.8 315 17.3 102150 38
2010-07-07 07:42:42 51°16.811 2°55.225 10.1 306 17.3 102150 38
2010-07-07 07:42:47 51°16.819 2°55.2 10.4 315 17.3 102160 39
2010-07-07 07:42:52 51°16.828 2°55.176 11.1 308 17.3 102160 39
2010-07-07 07:42:57 51°16.837 2°55.152 10.9 317 17.3 102150 39
2010-07-07 07:43:02 51°16.845 2°55.127 12.2 307 17.3 102150 39
2010-07-07 07:43:07 51°16.853 2°55.103 11.6 318 17.3 102140 39
2010-07-07 07:43:12 51°16.86 2°55.078 11.3 300 17.3 102140 39
2010-07-07 07:43:17 51°16.868 2°55.053 11.1 317 17.3 102150 39
2010-07-07 07:43:22 51°16.875 2°55.028 10.8 305 17.3 102150 39
2010-07-07 07:43:27 51°16.882 2°55.003 11.7 318 17.3 102140 37
2010-07-07 07:43:32 51°16.889 2°54.978 12.2 307 17.3 102140 37
2010-07-07 07:43:37 51°16.896 2°54.953 11.2 317 17.3 102140 37
2010-07-07 07:43:42 51°16.903 2°54.928 9.9 278 17.3 102140 37
2010-07-07 07:43:47 51°16.91 2°54.903 11 317 17.3 102140 37
2010-07-07 07:43:52 51°16.917 2°54.878 9.8 303 17.3 102140 37
2010-07-07 07:43:57 51°16.925 2°54.853 12.4 25 17.3 102140 37
2010-07-07 07:44:03 51°16.933 2°54.822 11 304 17.3 102140 37
2010-07-07 07:44:07 51°16.939 2°54.802 10.7 316 17.3 102150 35
2010-07-07 07:44:12 51°16.946 2°54.777 10.2 306 17.3 102150 35
2010-07-07 07:44:17 51°16.953 2°54.752 10.4 316 17.3 102140 37
2010-07-07 07:44:22 51°16.96 2°54.726 9.5 307 17.3 102140 37
2010-07-07 07:44:27 51°16.967 2°54.701 10.1 317 17.3 102150 37
2010-07-07 07:44:32 51°16.974 2°54.676 11.5 306 17.3 102150 37
2010-07-07 07:44:37 51°16.982 2°54.651 10.3 22 17.3 102140 37
2010-07-07 07:44:42 51°16.989 2°54.626 10.1 308 17.3 102140 37
2010-07-07 07:44:47 51°16.996 2°54.6 10.2 315 17.3 102150 38
2010-07-07 07:44:52 51°17.003 2°54.575 9.7 302 17.3 102150 38
2010-07-07 07:44:57 51°17.01 2°54.55 10.2 316 17.3 102150 38
2010-07-07 07:45:02 51°17.017 2°54.524 9 305 17.3 102150 38
2010-07-07 07:45:07 51°17.024 2°54.499 11 317 17.3 102150 38
2010-07-07 07:45:12 51°17.031 2°54.474 9.3 305 17.3 102150 38
2010-07-07 07:45:17 51°17.037 2°54.451 9.9 316 17.3 102150 37
2010-07-07 07:45:22 51°17.044 2°54.429 9.1 302 17.3 102150 37
2010-07-07 07:45:27 51°17.05 2°54.41 9.6 23 17.3 102150 39
2010-07-07 07:45:32 51°17.056 2°54.393 9.9 310 17.3 102150 39
2010-07-07 07:45:37 51°17.062 2°54.378 8.5 21 17.3 102150 39
2010-07-07 07:45:42 51°17.069 2°54.365 8.2 282 17.3 102150 39
2010-07-07 07:45:47 51°17.076 2°54.354 7.6 25 17.3 102140 39
2010-07-07 07:45:52 51°17.083 2°54.345 7.1 303 17.3 102140 39
2010-07-07 07:45:57 51°17.091 2°54.337 7.6 21 17.3 102150 38
2010-07-07 07:46:02 51°17.098 2°54.332 7.5 308 17.3 102150 38
2010-07-07 07:46:07 51°17.105 2°54.327 7.3 250 17.3 102150 37
2010-07-07 07:46:12 51°17.113 2°54.324 6 300 17.3 102150 37
2010-07-07 07:46:17 51°17.12 2°54.323 5.6 260 17.3 102160 38
2010-07-07 07:46:22 51°17.127 2°54.322 5 306 17.3 102160 38
2010-07-07 07:46:27 51°17.134 2°54.322 4.4 260 17.3 102160 39
2010-07-07 07:46:32 51°17.141 2°54.323 1.9 301 17.3 102160 39
2010-07-07 07:46:37 51°17.148 2°54.324 2.7 265 17.3 102160 37
2010-07-07 07:46:42 51°17.155 2°54.327 3.6 308 17.3 102160 37
2010-07-07 07:46:47 51°17.161 2°54.331 4.2 32 17.3 102160 37
2010-07-07 07:46:52 51°17.168 2°54.336 3.4 53 17.3 102160 37
2010-07-07 07:46:57 51°17.174 2°54.341 3.2 30 17.3 102170 38
2010-07-07 07:47:02 51°17.18 2°54.347 2.9 54 17.3 102170 38
2010-07-07 07:47:07 51°17.185 2°54.354 1.5 30 17.3 102170 38
2010-07-07 07:47:12 51°17.191 2°54.361 2.4 54 17.3 102170 38
2010-07-07 07:47:17 51°17.196 2°54.368 2.3 22 17.3 102170 38
2010-07-07 07:47:22 51°17.2 2°54.376 1.4 50 17.3 102170 38
2010-07-07 07:47:27 51°17.205 2°54.384 1.3 27 17.3 102170 39
2010-07-07 07:47:32 51°17.208 2°54.393 0.9 60 17.3 102170 39
2010-07-07 07:47:37 51°17.212 2°54.401 1 23 17.2 102170 39
2010-07-07 07:47:42 51°17.215 2°54.409 0.7 79 17.2 102170 39
2010-07-07 07:47:47 51°17.219 2°54.418 1.5 27 17.3 102170 39
2010-07-07 07:47:52 51°17.222 2°54.426 2.5 52 17.3 102170 39
2010-07-07 07:47:57 51°17.226 2°54.434 2.3 20 17.4 102170 39
2010-07-07 07:48:02 51°17.229 2°54.442 2.7 51 17.4 102170 39
2010-07-07 07:48:07 51°17.232 2°54.45 2.3 29 17.4 102170 38
2010-07-07 07:48:11 51°17.234 2°54.457 2.2 61 17.4 102170 38
2010-07-07 07:48:17 51°17.237 2°54.467 2.6 23 17.5 102180 38
2010-07-07 07:48:22 51°17.24 2°54.474 3.3 51 17.5 102180 38
2010-07-07 07:48:27 51°17.242 2°54.482 3.3 23 17.5 102180 39
2010-07-07 07:48:32 51°17.244 2°54.49 3.5 52 17.5 102180 39
2010-07-07 07:48:37 51°17.247 2°54.498 3.2 45 17.5 102170 39
2010-07-07 07:48:42 51°17.249 2°54.506 2.5 42 17.5 102170 39
2010-07-07 07:48:47 51°17.251 2°54.514 2.4 44 17.6 102170 39
2010-07-07 07:48:51 51°17.253 2°54.52 3.5 52 17.6 102170 39
2010-07-07 07:48:57 51°17.256 2°54.529 3 21 17.6 102180 39
2010-07-07 07:49:02 51°17.258 2°54.537 3 59 17.6 102180 39
2010-07-07 07:49:07 51°17.26 2°54.545 4.4 25 17.6 102170 40
2010-07-07 07:49:12 51°17.262 2°54.552 3.8 53 17.6 102170 40
2010-07-07 07:49:17 51°17.264 2°54.56 4.1 24 17.6 102180 40
2010-07-07 07:49:23 51°17.267 2°54.569 4.2 56 17.6 102180 40
2010-07-07 07:49:27 51°17.268 2°54.575 3.8 21 17.5 102170 37
2010-07-07 07:49:32 51°17.271 2°54.582 4.2 53 17.5 102170 37
2010-07-07 07:49:37 51°17.273 2°54.59 4.1 28 17.5 102180 38
2010-07-07 07:49:42 51°17.275 2°54.597 4.7 52 17.5 102180 38
2010-07-07 07:49:47 51°17.277 2°54.605 4.4 21 17.5 102170 38
2010-07-07 07:49:52 51°17.279 2°54.612 4.4 53 17.5 102170 38
2010-07-07 07:49:57 51°17.281 2°54.619 4.2 22 17.4 102180 38
2010-07-07 07:50:03 51°17.284 2°54.628 4.3 60 17.4 102180 38
2010-07-07 07:50:07 51°17.286 2°54.634 3.7 27 17.4 102180 37
2010-07-07 07:50:12 51°17.288 2°54.641 3.5 60 17.4 102180 37
2010-07-07 07:50:17 51°17.29 2°54.648 4.1 24 17.4 102180 37
2010-07-07 07:50:22 51°17.292 2°54.655 4.4 52 17.4 102180 37
2010-07-07 07:50:27 51°17.294 2°54.662 3.5 27 17.4 102180 38
2010-07-07 07:50:32 51°17.296 2°54.669 4.1 53 17.4 102180 38
2010-07-07 07:50:37 51°17.299 2°54.675 3.8 21 17.3 102180 38
2010-07-07 07:50:43 51°17.301 2°54.683 3.6 83 17.3 102180 38
2010-07-07 07:50:47 51°17.303 2°54.689 3.7 26 17.4 102180 37
2010-07-07 07:50:52 51°17.306 2°54.695 3.9 59 17.4 102180 37
2010-07-07 07:50:57 51°17.308 2°54.702 3.2 22 17.3 102180 38
2010-07-07 07:51:02 51°17.31 2°54.708 2.9 52 17.3 102180 38
2010-07-07 07:51:07 51°17.313 2°54.714 3.2 28 17.3 102180 37
2010-07-07 07:51:12 51°17.316 2°54.72 3.8 53 17.3 102180 37
2010-07-07 07:51:17 51°17.318 2°54.727 3 25 17.3 102170 38
2010-07-07 07:51:22 51°17.32 2°54.733 4 60 17.3 102170 38
2010-07-07 07:51:27 51°17.323 2°54.739 3.7 29 17.3 102180 38
2010-07-07 07:51:32 51°17.326 2°54.745 2.5 54 17.3 102180 38
2010-07-07 07:51:37 51°17.328 2°54.751 1.8 30 17.3 102170 38
2010-07-07 07:51:42 51°17.331 2°54.757 2.8 59 17.3 102170 38
2010-07-07 07:51:47 51°17.334 2°54.763 3.1 24 17.3 102170 37
2010-07-07 07:51:52 51°17.336 2°54.769 3.5 54 17.3 102170 37
2010-07-07 07:51:57 51°17.339 2°54.776 3.7 28 17.3 102180 37
2010-07-07 07:52:02 51°17.341 2°54.782 3.2 52 17.3 102180 37
2010-07-07 07:52:07 51°17.343 2°54.788 2.7 30 17.4 102180 36
2010-07-07 07:52:11 51°17.345 2°54.793 3.5 54 17.4 102180 36
2010-07-07 07:52:17 51°17.348 2°54.8 3.8 28 17.4 102180 37
2010-07-07 07:52:22 51°17.35 2°54.807 2.8 58 17.4 102180 37
2010-07-07 07:52:27 51°17.352 2°54.813 3.4 27 17.4 102180 37
2010-07-07 07:52:32 51°17.355 2°54.819 3.3 57 17.4 102180 37
2010-07-07 07:52:37 51°17.357 2°54.825 2.6 21 17.4 102180 37
2010-07-07 07:52:42 51°17.359 2°54.831 3.7 77 17.4 102180 37
2010-07-07 07:52:47 51°17.361 2°54.837 3.9 24 17.4 102180 38
2010-07-07 07:52:51 51°17.363 2°54.842 3.8 57 17.4 102180 38
2010-07-07 07:52:57 51°17.365 2°54.85 3.8 27 17.4 102180 38
2010-07-07 07:53:02 51°17.367 2°54.856 3.5 53 17.4 102180 38
2010-07-07 07:53:07 51°17.369 2°54.862 3.5 28 17.4 102170 38
2010-07-07 07:53:12 51°17.371 2°54.868 3.7 53 17.4 102170 38
2010-07-07 07:53:17 51°17.373 2°54.875 3.4 30 17.3 102180 37
2010-07-07 07:53:22 51°17.375 2°54.881 3.5 58 17.3 102180 37
2010-07-07 07:53:27 51°17.377 2°54.887 3 22 17.3 102170 37
2010-07-07 07:53:31 51°17.378 2°54.892 3.8 51 17.3 102170 37
2010-07-07 07:53:37 51°17.381 2°54.899 3.7 44 17.3 102180 38
2010-07-07 07:53:42 51°17.382 2°54.906 4.4 41 17.3 102180 38
2010-07-07 07:53:47 51°17.385 2°54.912 4.1 41 17.3 102180 39
2010-07-07 07:53:52 51°17.386 2°54.918 4.4 41 17.3 102180 39
2010-07-07 07:53:57 51°17.388 2°54.924 4.8 42 17.3 102180 38
2010-07-07 07:54:03 51°17.391 2°54.932 4.6 58 17.3 102180 38
2010-07-07 07:54:07 51°17.392 2°54.937 5.1 26 17.3 102180 40
2010-07-07 07:54:12 51°17.394 2°54.943 5.1 52 17.3 102180 40
2010-07-07 07:54:17 51°17.396 2°54.949 5.1 44 17.3 102170 39
2010-07-07 07:54:22 51°17.398 2°54.956 4.5 44 17.3 102170 39
2010-07-07 07:54:27 51°17.4 2°54.962 5.2 44 17.3 102180 39
2010-07-07 07:54:32 51°17.402 2°54.968 4.7 44 17.3 102180 39
2010-07-07 07:54:37 51°17.403 2°54.974 4.4 42 17.3 102180 38
2010-07-07 07:54:43 51°17.406 2°54.982 4.6 42 17.3 102180 38
2010-07-07 07:54:47 51°17.407 2°54.987 4.6 43 17.3 102180 37
2010-07-07 07:54:52 51°17.409 2°54.993 4.8 43 17.3 102180 37
2010-07-07 07:54:57 51°17.411 2°54.999 4.8 44 17.3 102180 39
2010-07-07 07:55:02 51°17.413 2°55.006 4.3 42 17.3 102180 39
2010-07-07 07:55:07 51°17.415 2°55.012 4.1 44 17.3 102180 38
2010-07-07 07:55:12 51°17.416 2°55.018 4.1 43 17.3 102180 38
2010-07-07 07:55:17 51°17.418 2°55.024 4 42 17.2 102180 36
2010-07-07 07:55:22 51°17.42 2°55.031 3.6 41 17.2 102180 36
2010-07-07 07:55:27 51°17.422 2°55.037 4.2 39 17.2 102180 37
2010-07-07 07:55:32 51°17.424 2°55.043 4.3 39 17.2 102180 37
2010-07-07 07:55:37 51°17.425 2°55.049 5 39 17.2 102180 38
2010-07-07 07:55:42 51°17.427 2°55.056 4.5 41 17.2 102180 38
2010-07-07 07:55:47 51°17.429 2°55.062 4.3 41 17.2 102180 38
2010-07-07 07:55:52 51°17.431 2°55.068 4 43 17.2 102180 38
2010-07-07 07:55:57 51°17.432 2°55.074 3.8 42 17.2 102180 37
2010-07-07 07:56:02 51°17.434 2°55.08 4.1 41 17.2 102180 37
2010-07-07 07:56:07 51°17.436 2°55.087 3.8 41 17.2 102180 37
2010-07-07 07:56:11 51°17.437 2°55.092 4 39 17.2 102180 37
2010-07-07 07:56:17 51°17.44 2°55.099 3.9 42 17.2 102180 37
2010-07-07 07:56:22 51°17.441 2°55.105 3.6 53 17.2 102180 37
2010-07-07 07:56:27 51°17.443 2°55.111 3.1 45 17.2 102180 37
2010-07-07 07:56:32 51°17.445 2°55.117 3.7 43 17.2 102180 37
2010-07-07 07:56:37 51°17.447 2°55.123 3.6 41 17.2 102180 36
2010-07-07 07:56:42 51°17.449 2°55.129 3.2 43 17.2 102180 36
2010-07-07 07:56:47 51°17.451 2°55.135 4.1 44 17.2 102180 37
2010-07-07 07:56:51 51°17.452 2°55.14 3.8 57 17.2 102180 37
2010-07-07 07:56:57 51°17.455 2°55.147 4.1 44 17.2 102180 37
2010-07-07 07:57:02 51°17.457 2°55.153 3.8 53 17.2 102180 37
2010-07-07 07:57:07 51°17.459 2°55.159 3.7 25 17.2 102180 37
2010-07-07 07:57:12 51°17.461 2°55.165 4 52 17.2 102180 37
2010-07-07 07:57:17 51°17.463 2°55.171 3.6 24 17.2 102180 37
2010-07-07 07:57:22 51°17.465 2°55.177 4 50 17.2 102180 37
2010-07-07 07:57:27 51°17.467 2°55.183 3.5 23 17.2 102180 37
2010-07-07 07:57:32 51°17.469 2°55.189 3.8 59 17.2 102180 37
2010-07-07 07:57:37 51°17.471 2°55.195 3.4 22 17.3 102180 38
2010-07-07 07:57:42 51°17.473 2°55.201 3.5 51 17.3 102180 38
2010-07-07 07:57:47 51°17.475 2°55.207 4.3 22 17.3 102180 38
2010-07-07 07:57:52 51°17.477 2°55.213 4.6 53 17.3 102180 38
2010-07-07 07:57:57 51°17.479 2°55.219 4.7 45 17.3 102180 38
2010-07-07 07:58:02 51°17.481 2°55.225 4.5 53 17.3 102180 38
2010-07-07 07:58:07 51°17.484 2°55.231 4.7 22 17.3 102180 39
2010-07-07 07:58:12 51°17.486 2°55.237 4.8 45 17.3 102180 39
2010-07-07 07:58:17 51°17.488 2°55.243 4.5 45 17.3 102180 39
2010-07-07 07:58:22 51°17.49 2°55.249 4.4 59 17.3 102180 39
2010-07-07 07:58:27 51°17.492 2°55.255 4.1 44 17.2 102180 38
2010-07-07 07:58:32 51°17.494 2°55.261 4.2 53 17.2 102180 38
2010-07-07 07:58:37 51°17.496 2°55.268 4.5 44 17.2 102180 37
2010-07-07 07:58:42 51°17.498 2°55.274 4.3 43 17.2 102180 37
2010-07-07 07:58:47 51°17.5 2°55.279 4.2 43 17.2 102180 36
2010-07-07 07:58:52 51°17.502 2°55.286 4 44 17.2 102180 36
2010-07-07 07:58:57 51°17.504 2°55.292 3.6 43 17.2 102180 37
2010-07-07 07:59:03 51°17.507 2°55.299 4.1 45 17.2 102180 37
2010-07-07 07:59:07 51°17.508 2°55.304 4.2 44 17.2 102180 36
2010-07-07 07:59:12 51°17.51 2°55.31 4.1 43 17.2 102180 36
2010-07-07 07:59:17 51°17.512 2°55.316 3.9 42 17.2 102180 36
2010-07-07 07:59:22 51°17.514 2°55.322 3.8 42 17.2 102180 36
2010-07-07 07:59:27 51°17.516 2°55.328 4.1 43 17.2 102180 37
2010-07-07 07:59:32 51°17.518 2°55.335 4.1 44 17.2 102180 37
2010-07-07 07:59:37 51°17.52 2°55.341 3.7 43 17.2 102180 37
2010-07-07 07:59:42 51°17.522 2°55.347 3.6 44 17.2 102180 37
2010-07-07 07:59:47 51°17.523 2°55.353 4 43 17.2 102180 37
2010-07-07 07:59:52 51°17.525 2°55.359 4.1 43 17.2 102180 37
2010-07-07 07:59:57 51°17.527 2°55.365 3.9 41 17.2 102180 38
2010-07-07 08:00:02 51°17.529 2°55.371 3.9 40 17.2 102180 38
2010-07-07 08:00:07 51°17.531 2°55.377 3.7 39 17.2 102180 36
2010-07-07 08:00:12 51°17.533 2°55.384 3.8 41 17.2 102180 36
2010-07-07 08:00:17 51°17.535 2°55.39 2.8 41 17.2 102180 37
2010-07-07 08:00:22 51°17.536 2°55.396 3.4 42 17.2 102180 37
2010-07-07 08:00:27 51°17.538 2°55.402 3.7 40 17.2 102190 37
2010-07-07 08:00:32 51°17.54 2°55.408 2.7 41 17.2 102190 37
2010-07-07 08:00:37 51°17.542 2°55.415 3.5 40 17.2 102180 38
2010-07-07 08:00:43 51°17.544 2°55.422 3.2 39 17.2 102180 38
2010-07-07 08:00:47 51°17.546 2°55.427 3.6 43 17.3 102180 39
2010-07-07 08:00:52 51°17.547 2°55.433 2.6 43 17.3 102180 39
2010-07-07 08:00:57 51°17.549 2°55.44 2.6 39 17.2 102180 37
2010-07-07 08:01:02 51°17.551 2°55.446 3.5 39 17.2 102180 37
2010-07-07 08:01:07 51°17.553 2°55.452 2.9 41 17.3 102180 38
2010-07-07 08:01:12 51°17.555 2°55.458 3.5 39 17.3 102180 38
2010-07-07 08:01:17 51°17.556 2°55.464 4 42 17.3 102180 39
2010-07-07 08:01:23 51°17.559 2°55.472 3.6 42 17.3 102180 39
2010-07-07 08:01:27 51°17.56 2°55.476 3.6 43 17.3 102180 38
2010-07-07 08:01:32 51°17.562 2°55.482 3.9 40 17.3 102180 38
2010-07-07 08:01:37 51°17.564 2°55.488 3.7 41 17.3 102180 38
2010-07-07 08:01:42 51°17.566 2°55.494 3.6 43 17.3 102180 38
2010-07-07 08:01:47 51°17.568 2°55.5 3.3 43 17.3 102180 38
2010-07-07 08:01:52 51°17.57 2°55.506 3.2 44 17.3 102180 38
2010-07-07 08:01:57 51°17.572 2°55.512 3.1 21 17.3 102180 37
2010-07-07 08:02:03 51°17.574 2°55.519 2.9 56 17.3 102180 37
2010-07-07 08:02:07 51°17.576 2°55.524 2.7 23 17.3 102180 39
2010-07-07 08:02:12 51°17.578 2°55.53 2.4 52 17.3 102180 39
2010-07-07 08:02:17 51°17.58 2°55.536 3 22 17.3 102180 39
2010-07-07 08:02:22 51°17.582 2°55.542 3.7 52 17.3 102180 39
2010-07-07 08:02:27 51°17.584 2°55.547 3.8 22 17.3 102180 38
2010-07-07 08:02:32 51°17.587 2°55.553 3.8 57 17.3 102180 38
2010-07-07 08:02:37 51°17.589 2°55.559 3.2 28 17.3 102180 38
2010-07-07 08:02:42 51°17.591 2°55.565 2.4 77 17.3 102180 38
2010-07-07 08:02:47 51°17.594 2°55.57 2.2 24 17.3 102180 37
2010-07-07 08:02:52 51°17.596 2°55.576 2.3 55 17.3 102180 37
2010-07-07 08:02:57 51°17.598 2°55.582 1.9 30 17.3 102190 38
2010-07-07 08:03:02 51°17.6 2°55.587 2.3 56 17.3 102190 38
2010-07-07 08:03:07 51°17.603 2°55.593 1.8 28 17.3 102180 39
2010-07-07 08:03:11 51°17.604 2°55.598 2.7 59 17.3 102180 39
2010-07-07 08:03:17 51°17.607 2°55.604 3.1 27 17.3 102180 38
2010-07-07 08:03:22 51°17.61 2°55.61 3.1 59 17.3 102180 38
2010-07-07 08:03:27 51°17.612 2°55.616 4 20 17.4 102180 38
2010-07-07 08:03:32 51°17.614 2°55.622 3.7 56 17.4 102180 38
2010-07-07 08:03:37 51°17.617 2°55.627 3.6 21 17.4 102180 37
2010-07-07 08:03:42 51°17.619 2°55.633 4.2 52 17.4 102180 37
2010-07-07 08:03:47 51°17.621 2°55.639 3.7 23 17.5 102180 37
2010-07-07 08:03:51 51°17.623 2°55.644 3.7 50 17.5 102180 37
2010-07-07 08:03:57 51°17.626 2°55.651 4 24 17.5 102180 38
2010-07-07 08:04:02 51°17.628 2°55.656 4.3 51 17.5 102180 38
2010-07-07 08:04:07 51°17.631 2°55.662 4.1 22 17.5 102180 37
2010-07-07 08:04:12 51°17.633 2°55.668 3.5 54 17.5 102180 37
2010-07-07 08:04:17 51°17.635 2°55.674 3.9 23 17.5 102180 38
2010-07-07 08:04:22 51°17.638 2°55.68 3.6 52 17.5 102180 38
2010-07-07 08:04:27 51°17.64 2°55.686 3.8 23 17.5 102180 38
2010-07-07 08:04:31 51°17.642 2°55.691 3.7 52 17.5 102180 38
2010-07-07 08:04:37 51°17.645 2°55.698 3.2 26 17.5 102180 38
2010-07-07 08:04:42 51°17.647 2°55.704 4.3 82 17.5 102180 38
2010-07-07 08:04:47 51°17.65 2°55.71 3.5 26 17.5 102180 38
2010-07-07 08:04:52 51°17.652 2°55.715 3.3 54 17.5 102180 38
2010-07-07 08:04:57 51°17.655 2°55.721 3.8 30 17.5 102180 38
2010-07-07 08:05:03 51°17.657 2°55.728 3.4 53 17.5 102180 38
2010-07-07 08:05:07 51°17.659 2°55.733 3.1 21 17.5 102180 38
2010-07-07 08:05:12 51°17.662 2°55.739 2.9 59 17.5 102180 38
2010-07-07 08:05:17 51°17.664 2°55.745 2.7 30 17.5 102180 38
2010-07-07 08:05:22 51°17.667 2°55.751 2.4 59 17.5 102180 38
2010-07-07 08:05:27 51°17.669 2°55.757 3.1 20 17.4 102180 37
2010-07-07 08:05:32 51°17.671 2°55.763 3.2 57 17.4 102180 37
2010-07-07 08:05:37 51°17.674 2°55.768 3.9 29 17.4 102180 37
2010-07-07 08:05:42 51°17.676 2°55.774 3.8 53 17.4 102180 37
2010-07-07 08:05:47 51°17.679 2°55.78 3.5 22 17.4 102190 38
2010-07-07 08:05:51 51°17.681 2°55.785 3.8 54 17.4 102190 38
2010-07-07 08:05:57 51°17.684 2°55.792 3.5 24 17.4 102180 37
2010-07-07 08:06:02 51°17.686 2°55.798 3.9 58 17.4 102180 37
2010-07-07 08:06:07 51°17.688 2°55.804 4.1 23 17.4 102190 39
2010-07-07 08:06:12 51°17.691 2°55.81 4.1 43 17.4 102190 39
2010-07-07 08:06:17 51°17.693 2°55.816 3.7 22 17.4 102180 38
2010-07-07 08:06:22 51°17.695 2°55.822 3.7 40 17.4 102180 38
2010-07-07 08:06:27 51°17.698 2°55.828 3.7 45 17.4 102180 38
2010-07-07 08:06:31 51°17.7 2°55.832 3.9 53 17.4 102180 38
2010-07-07 08:06:37 51°17.702 2°55.84 4.5 28 17.4 102180 38
2010-07-07 08:06:42 51°17.705 2°55.846 4.7 81 17.4 102180 38
2010-07-07 08:06:47 51°17.707 2°55.852 4.3 44 17.3 102180 37
2010-07-07 08:06:51 51°17.709 2°55.857 4.7 60 17.3 102180 37
2010-07-07 08:06:57 51°17.711 2°55.864 4.3 30 17.3 102180 38
2010-07-07 08:07:02 51°17.713 2°55.87 4.4 43 17.3 102180 38
2010-07-07 08:07:07 51°17.716 2°55.876 4.1 45 17.3 102180 37
2010-07-07 08:07:12 51°17.718 2°55.882 3.8 54 17.3 102180 37
2010-07-07 08:07:17 51°17.72 2°55.888 4.9 29 17.3 102180 36
2010-07-07 08:07:22 51°17.722 2°55.894 4.8 51 17.3 102180 36
2010-07-07 08:07:27 51°17.724 2°55.901 4.8 22 17.3 102180 37
2010-07-07 08:07:32 51°17.726 2°55.907 5.1 52 17.3 102180 37
2010-07-07 08:07:37 51°17.727 2°55.913 5.1 23 17.3 102180 37
2010-07-07 08:07:43 51°17.73 2°55.92 4.6 59 17.3 102180 37
2010-07-07 08:07:47 51°17.731 2°55.925 4.3 44 17.3 102180 36
2010-07-07 08:07:52 51°17.733 2°55.932 4.4 42 17.3 102180 36
2010-07-07 08:07:57 51°17.735 2°55.938 3.8 41 17.3 102180 36
2010-07-07 08:08:02 51°17.737 2°55.945 4.4 41 17.3 102180 36
2010-07-07 08:08:07 51°17.738 2°55.952 4.2 42 17.3 102180 34
2010-07-07 08:08:12 51°17.74 2°55.958 4.2 42 17.3 102180 34
2010-07-07 08:08:17 51°17.742 2°55.965 3.9 41 17.3 102180 35
2010-07-07 08:08:23 51°17.743 2°55.974 4.1 41 17.3 102180 35
2010-07-07 08:08:27 51°17.745 2°55.979 4.1 41 17.3 102180 37
2010-07-07 08:08:32 51°17.746 2°55.986 4.5 41 17.3 102180 37
2010-07-07 08:08:37 51°17.748 2°55.994 4.1 40 17.3 102180 37
2010-07-07 08:08:43 51°17.749 2°56.003 4.2 40 17.3 102180 37
2010-07-07 08:08:47 51°17.75 2°56.009 3.8 40 17.3 102180 35
2010-07-07 08:08:52 51°17.752 2°56.016 3.6 42 17.3 102180 35
2010-07-07 08:08:57 51°17.754 2°56.024 3.7 39 17.3 102180 36
2010-07-07 08:09:02 51°17.755 2°56.031 3.1 40 17.3 102180 36
2010-07-07 08:09:07 51°17.756 2°56.039 3.5 41 17.3 102180 36
2010-07-07 08:09:12 51°17.758 2°56.047 3.2 37 17.3 102180 36
2010-07-07 08:09:17 51°17.759 2°56.055 3.3 37 17.4 102180 37
2010-07-07 08:09:22 51°17.76 2°56.063 3.5 39 17.4 102180 37
2010-07-07 08:09:27 51°17.762 2°56.071 2.8 41 17.3 102180 36
2010-07-07 08:09:32 51°17.763 2°56.079 3 40 17.3 102180 36
2010-07-07 08:09:37 51°17.765 2°56.088 2.7 37 17.4 102180 38
2010-07-07 08:09:43 51°17.766 2°56.097 2.9 37 17.4 102180 38
2010-07-07 08:09:47 51°17.768 2°56.104 3.2 37 17.3 102180 36
2010-07-07 08:09:52 51°17.769 2°56.113 3 39 17.3 102180 36
2010-07-07 08:09:57 51°17.77 2°56.121 2.5 42 17.3 102180 36
2010-07-07 08:10:02 51°17.772 2°56.13 4.5 39 17.3 102180 36
2010-07-07 08:10:07 51°17.773 2°56.139 4 35 17.4 102180 37
2010-07-07 08:10:12 51°17.774 2°56.147 4.3 36 17.4 102180 37
2010-07-07 08:10:17 51°17.775 2°56.156 4.2 32 17.4 102180 39
2010-07-07 08:10:22 51°17.776 2°56.165 4.5 34 17.4 102180 39
2010-07-07 08:10:27 51°17.777 2°56.174 4.5 34 17.4 102180 38
2010-07-07 08:10:31 51°17.778 2°56.181 4.4 32 17.4 102180 38
2010-07-07 08:10:37 51°17.778 2°56.191 4.1 32 17.4 102180 36
2010-07-07 08:10:42 51°17.778 2°56.2 4.6 31 17.4 102180 36
2010-07-07 08:10:47 51°17.778 2°56.208 4.1 31 17.4 102180 34
2010-07-07 08:10:52 51°17.778 2°56.217 4.4 31 17.4 102180 34
2010-07-07 08:10:57 51°17.778 2°56.225 4.9 30 17.3 102180 36
2010-07-07 08:11:02 51°17.778 2°56.233 4.8 27 17.3 102180 36
2010-07-07 08:11:07 51°17.777 2°56.241 4.6 26 17.4 102180 36
2010-07-07 08:11:11 51°17.777 2°56.248 5 23 17.4 102180 36
2010-07-07 08:11:17 51°17.776 2°56.258 4.5 23 17.4 102180 36
2010-07-07 08:11:22 51°17.775 2°56.265 5 23 17.4 102180 36
2010-07-07 08:11:27 51°17.774 2°56.273 5.2 23 17.4 102180 36
2010-07-07 08:11:32 51°17.773 2°56.281 5.6 19 17.4 102180 36
2010-07-07 08:11:37 51°17.772 2°56.289 5.5 21 17.4 102180 37
2010-07-07 08:11:42 51°17.77 2°56.297 4.8 22 17.4 102180 37
2010-07-07 08:11:47 51°17.769 2°56.304 5.1 19 17.4 102180 37
2010-07-07 08:11:51 51°17.768 2°56.31 5.4 18 17.4 102180 37
2010-07-07 08:11:57 51°17.766 2°56.319 4.7 14 17.5 102180 37
2010-07-07 08:12:02 51°17.764 2°56.327 4.9 9 17.5 102180 37
2010-07-07 08:12:07 51°17.762 2°56.335 4.9 11 17.5 102180 38
2010-07-07 08:12:12 51°17.76 2°56.343 4.7 4 17.5 102180 38
2010-07-07 08:12:17 51°17.757 2°56.351 3.9 4 17.5 102180 38
2010-07-07 08:12:22 51°17.754 2°56.359 4.4 2 17.5 102180 38
2010-07-07 08:12:27 51°17.751 2°56.367 3.9 3 17.5 102180 39
2010-07-07 08:12:32 51°17.748 2°56.375 4.8 358 17.5 102180 39
2010-07-07 08:12:37 51°17.744 2°56.383 4.8 357 17.5 102180 39
2010-07-07 08:12:43 51°17.74 2°56.392 4.7 358 17.5 102180 39
2010-07-07 08:12:47 51°17.737 2°56.397 5.1 355 17.5 102180 38
2010-07-07 08:12:52 51°17.733 2°56.404 4.4 356 17.5 102180 38
2010-07-07 08:12:57 51°17.729 2°56.41 5.1 357 17.5 102180 38
2010-07-07 08:13:02 51°17.726 2°56.415 4.6 355 17.5 102180 38
2010-07-07 08:13:07 51°17.722 2°56.421 3.9 358 17.5 102170 39
2010-07-07 08:13:12 51°17.719 2°56.425 3.8 357 17.5 102170 39
2010-07-07 08:13:17 51°17.716 2°56.43 3.8 354 17.5 102170 38
2010-07-07 08:13:22 51°17.713 2°56.435 3.6 351 17.5 102170 38
2010-07-07 08:13:27 51°17.71 2°56.439 4.3 349 17.5 102170 37